Weather in Baturino

Russia / Smolensk Oblast     55°33′45″N   32°47′50″E
temp.,
°C
wind,
m/s
gust,
m/s
humid.,
%
clouds,
%
prec.,
mm/h
press.,
hPa
HPBL,
m
17 june, thu
thu1700:00+12ne227222 0.0 102141
03:00+11ne22755 0.0 102230
06:00+12ene24755 0.0 102398
09:00+19ene22546 0.0 1024465
12:00+23e11410 0.0 10241571
15:00+25ne11385 0.0 10241739
18:00+24ne12442 0.0 10241442
21:00+17se23786 0.0 102548
18 june, fri
fri1800:00+14sse228090 0.0 102615
03:00+13sse228499 0.0 102718
06:00+14sse13835 0.0 102777
09:00+21sse23598 0.0 1027500
12:00+24sse23455 0.0 10261461
15:00+26sse33415 0.0 10261715
18:00+25sse33513 0.0 10251153
21:00+18s22770 0.0 102518
19 june, sat
sat1900:00+15s25840 0.0 102687
03:00+14s24932 0.0 102672
06:00+15s25905 0.0 1027141
09:00+21s24645 0.0 1026603
12:00+25sse23501 0.0 10251341
15:00+26sse33440 0.0 10241615
18:00+25sse33530 0.0 10231077
21:00+19s23790 0.0 102339
20 june, sun
sun2000:00+16sse22912 0.0 102438
03:00+14s22943 0.0 102435
06:00+16s13880 0.0 102493
09:00+22sse24680 0.0 1023594
12:00+26s34501 0.0 10221262
15:00+28s23460 0.0 10211598
18:00+27sse23543 0.0 10201231
21:00+21sse23835 0.0 102149
21 june, mon
mon2100:00+18sse238892 0.0 102161
03:00+17sse229494 0.0 102137
06:00+18sse23905 0.0 102292
09:00+23se236475 0.0 1021515
12:00+27ese34486 0.0 10201082
15:00+29se44405 0.0 10191411
18:00+28se34515 0.0 1019841
21:00+22sse227897 0.0 101936